KE6RYB Weather Reports


time (UTC)temp
F
wind
direction
speed
knots
gust
knots
rain 1hr
in
rain 24hr
in
rain mn
in
humidity
%
barometer
mb
20260831025912 0 144 0.9 0.9 0.00 0.00 0.00 1021.6
20260831025412 0 89 1.7 2.6 0.00 0.00 0.00 1021.5
20260831024908 0 307 0.0 0.9 0.00 0.00 0.00 1021.6
20260831024407 0 333 1.7 1.7 0.00 0.00 0.00 1021.3
20260831023908 0 358 0.9 1.7 0.00 0.00 0.00 1021.3
20260831023406 0 348 0.9 0.9 0.00 0.00 0.00 1020.9
20260831022901 0 63 1.7 1.7 0.00 0.00 0.00 1021.2
20260831022359 0 36 0.0 0.9 0.00 0.00 0.00 1021.0
20260831021855 0 4 2.6 2.6 0.00 0.00 0.00 1020.8
20260831021354 0 41 2.6 4.3 0.00 0.00 0.00 1020.7
20260831020850 0 14 0.9 1.7 0.00 0.00 0.00 1020.8
20260831020350 0 54 3.5 4.3 0.00 0.00 0.00 1020.8
20260831015845 0 62 4.3 5.2 0.00 0.00 0.00 1020.4
20260831015341 0 235 0.9 0.9 0.00 0.00 0.00 1020.5
20260831014841 0 20 2.6 5.2 0.00 0.00 0.00 1020.4
20260831014335 0 303 2.6 2.6 0.00 0.00 0.00 1020.4
20260831013832 0 301 0.0 0.9 0.00 0.00 0.00 1020.2
20260831013332 0 314 0.0 0.0 0.00 0.00 0.00 1020.5
20260831012826 0 22 0.9 0.9 0.00 0.00 0.00 1020.3
20260831012322 0 317 0.9 1.7 0.00 0.00 0.00 1020.3
20260831011821 0 15 2.6 4.3 0.00 0.00 0.00 1020.4
20260831011317 0 51 0.0 0.9 0.00 0.00 0.00 1020.2
20260831010813 0 81 0.9 0.9 0.00 0.00 0.00 1020.1
20260831010312 0 55 0.9 1.7 0.00 0.00 0.00 1019.8
20260831005808 0 279 1.7 1.7 0.00 0.00 0.00 1020.0
20260831005306 0 30 0.0 0.0 0.00 0.00 0.00 1019.8
20260831004804 0 32 0.0 0.0 0.00 0.00 0.00 1019.7
20260831004300 0 13 0.9 0.9 0.00 0.00 0.00 1019.4
20260831003750 0 39 0.9 0.9 0.00 0.00 0.00 1019.4
20260831003246 0 59 1.7 1.7 0.00 0.00 0.00 1019.3
20260831002745 0 355 1.7 2.6 0.00 0.00 0.00 1019.4
20260831002245 0 353 2.6 4.3 0.00 0.00 0.00 1019.0
20260831001741 0 89 0.0 0.9 0.00 0.00 0.00 1019.1
20260831001235 0 293 0.0 0.0 0.00 0.00 0.00 1019.1
20260831000733 0 63 1.7 1.7 0.00 0.00 0.00 1018.9
20260831000227 0 298 0.0 0.9 0.00 0.00 0.00 1018.9
20260830235726 0 79 3.5 5.2 0.00 0.00 0.00 1019.0
20260830235221 0 265 0.9 0.9 0.00 0.00 0.00 1018.7
20260830234716 0 120 0.0 0.0 0.00 0.00 0.00 1018.8
20260830234212 0 107 0.9 0.9 0.00 0.00 0.00 1018.3
20260830233708 0 49 0.9 1.7 0.00 0.00 0.00 1018.5
20260830233203 0 348 0.0 0.0 0.00 0.00 0.00 1018.7
20260830232658 0 347 0.0 0.0 0.00 0.00 0.00 1018.5
20260830232154 0 207 0.9 0.9 0.00 0.00 0.00 1018.4
20260830231651 0 145 1.7 1.7 0.00 0.00 0.00 1018.6
20260830231150 0 62 1.7 1.7 0.00 0.00 0.00 1018.4
20260830230645 0 52 1.7 1.7 0.00 0.00 0.00 1018.3
20260830230145 0 359 1.7 1.7 0.00 0.00 0.00 1018.4
20260830225639 0 352 0.0 0.0 0.00 0.00 0.00 1018.4
20260830225134 0 84 0.9 0.9 0.00 0.00 0.00 1018.2
20260830224633 0 118 1.7 1.7 0.00 0.00 0.00 1018.3
20260830224129 0 86 2.6 4.3 0.00 0.00 0.00 1018.3
20260830223627 0 112 0.0 0.9 0.00 0.00 0.00 1018.2
20260830223126 0 278 0.9 0.9 0.00 0.00 0.00 1018.2
20260830222626 0 96 1.7 1.7 0.00 0.00 0.00 1018.3
20260830222122 0 126 0.9 0.9 0.00 0.00 0.00 1018.4
20260830221618 0 308 0.9 0.9 0.00 0.00 0.00 1018.6
20260830221113 0 26 5.2 7.0 0.00 0.00 0.00 1018.4
20260830220609 0 40 0.9 0.9 0.00 0.00 0.00 1018.5
20260830220108 0 336 2.6 4.3 0.00 0.00 0.00 1018.4
20260830215607 0 3 0.9 1.7 0.00 0.00 0.00 1018.5
20260830215101 0 99 2.6 4.3 0.00 0.00 0.00 1018.7
20260830214556 0 168 3.5 6.1 0.00 0.00 0.00 1018.7
20260830214051 0 167 0.0 0.0 0.00 0.00 0.00 1018.6
20260830213551 0 77 1.7 1.7 0.00 0.00 0.00 1018.7
20260830213047 0 322 1.7 2.6 0.00 0.00 0.00 1018.9
20260830212542 0 16 1.7 2.6 0.00 0.00 0.00 1018.9
20260830212037 0 141 0.9 0.9 0.00 0.00 0.00 1018.9
20260830211532 0 143 1.7 2.6 0.00 0.00 0.00 1018.8
20260830211032 0 278 0.9 0.9 0.00 0.00 0.00 1018.7
20260830210527 0 258 0.9 0.9 0.00 0.00 0.00 1018.8
20260830210026 0 264 2.6 4.3 0.00 0.00 0.00 1018.7
20260830205524 0 351 2.6 4.3 0.00 0.00 0.00 1018.8
20260830205020 0 278 0.0 0.0 0.00 0.00 0.00 1018.8
20260830204519 0 30 1.7 4.3 0.00 0.00 0.00 1018.7
20260830204018 0 336 0.9 0.9 0.00 0.00 0.00 1018.9
20260830203515 0 76 0.9 0.9 0.00 0.00 0.00 1018.7
20260830203010 0 288 0.9 0.9 0.00 0.00 0.00 1018.8
20260830202504 0 321 0.9 0.9 0.00 0.00 0.00 1018.8
20260830202000 0 104 0.9 0.9 0.00 0.00 0.00 1018.8
20260830201459 0 19 2.6 4.3 0.00 0.00 0.00 1018.9
20260830200954 0 208 0.9 0.9 0.00 0.00 0.00 1018.9
20260830200449 0 325 0.9 0.9 0.00 0.00 0.00 1018.9
20260830195948 0 99 0.9 1.7 0.00 0.00 0.00 1019.2
20260830195444 0 320 0.0 0.9 0.00 0.00 0.00 1019.4
20260830194942 0 319 0.9 0.9 0.00 0.00 0.00 1019.0
20260830194442 0 113 1.7 1.7 0.00 0.00 0.00 1019.2
20260830193941 0 55 1.7 1.7 0.00 0.00 0.00 1019.1
20260830193440 0 345 0.9 1.7 0.00 0.00 0.00 1019.4
20260830192936 0 320 0.0 0.0 0.00 0.00 0.00 1019.3
20260830192431 0 67 1.7 2.6 0.00 0.00 0.00 1019.4
20260830191926 0 128 1.7 2.6 0.00 0.00 0.00 1019.5
20260830191426 0 310 0.0 0.9 0.00 0.00 0.00 1019.6
20260830190922 0 27 0.0 0.9 0.00 0.00 0.00 1019.4
20260830190417 0 78 0.9 1.7 0.00 0.00 0.00 1019.5
20260830185916 0 218 0.0 0.0 0.00 0.00 0.00 1019.5
20260830185411 0 269 0.0 0.9 0.00 0.00 0.00 1019.7
20260830184906 0 38 2.6 2.6 0.00 0.00 0.00 1019.7
20260830184405 0 83 0.9 1.7 0.00 0.00 0.00 1019.6
20260830183900 0 327 0.9 2.6 0.00 0.00 0.00 1019.7
20260830183400 0 215 0.9 0.9 0.00 0.00 0.00 1019.7
20260830182855 0 319 1.7 1.7 0.00 0.00 0.00 1019.8
20260830182351 0 269 0.9 0.9 0.00 0.00 0.00 1020.0
20260830181847 0 138 0.9 0.9 0.00 0.00 0.00 1020.3
20260830181342 0 76 0.9 0.9 0.00 0.00 0.00 1019.9
20260830180837 0 187 0.9 0.9 0.00 0.00 0.00 1020.3
20260830180337 0 155 1.7 2.6 0.00 0.00 0.00 1020.2
20260830175836 0 313 0.0 0.0 0.00 0.00 0.00 1020.3
20260830175330 0 13 1.7 2.6 0.00 0.00 0.00 1020.4
20260830174826 0 211 1.7 2.6 0.00 0.00 0.00 1020.4
20260830174321 0 317 0.0 0.9 0.00 0.00 0.00 1020.3
20260830173821 0 84 0.0 0.9 0.00 0.00 0.00 1020.3
20260830173316 0 4 1.7 2.6 0.00 0.00 0.00 1020.6
20260830172813 0 299 0.0 0.0 0.00 0.00 0.00 1020.6
20260830172309 0 208 0.9 1.7 0.00 0.00 0.00 1020.5
20260830171805 0 188 1.7 1.7 0.00 0.00 0.00 1020.6
20260830171300 0 80 1.7 1.7 0.00 0.00 0.00 1020.7
20260830170754 0 179 2.6 4.3 0.00 0.00 0.00 1020.7
20260830170254 0 8 0.9 1.7 0.00 0.00 0.00 1020.6
20260830165752 0 139 0.9 1.7 0.00 0.00 0.00 1020.7
20260830165249 0 126 1.7 1.7 0.00 0.00 0.00 1020.7
20260830164745 0 162 0.9 0.9 0.00 0.00 0.00 1021.0
20260830164241 0 240 0.0 0.0 0.00 0.00 0.00 1020.8
20260830163737 0 165 1.7 2.6 0.00 0.00 0.00 1020.8
20260830163233 0 267 3.5 5.2 0.00 0.00 0.00 1020.8
20260830162727 0 260 2.6 4.3 0.00 0.00 0.00 1020.7
20260830162223 0 213 2.6 2.6 0.00 0.00 0.00 1020.6
20260830161718 0 196 2.6 2.6 0.00 0.00 0.00 1020.7
20260830161212 0 150 2.6 2.6 0.00 0.00 0.00 1020.8
20260830160708 0 51 2.6 5.2 0.00 0.00 0.00 1021.2
20260830160203 0 58 0.9 0.9 0.00 0.00 0.00 1021.0
20260830155659 0 286 0.0 0.9 0.00 0.00 0.00 1020.8
20260830155155 0 326 2.6 2.6 0.00 0.00 0.00 1020.8
20260830154650 0 218 0.9 0.9 0.00 0.00 0.00 1020.8
20260830154146 0 279 0.0 0.0 0.00 0.00 0.00 1020.9
20260830153642 0 14 0.9 0.9 0.00 0.00 0.00 1020.8
20260830153142 0 239 2.6 2.6 0.00 0.00 0.00 1020.9
20260830152641 0 194 1.7 2.6 0.00 0.00 0.00 1020.7
20260830152140 0 254 3.5 4.3 0.00 0.00 0.00 1020.9
20260830151636 0 39 0.9 1.7 0.00 0.00 0.00 1020.9
20260830151136 0 212 1.7 1.7 0.00 0.00 0.00 1021.0
20260830150636 0 225 2.6 4.3 0.00 0.00 0.00 1020.8
20260830150130 0 206 4.3 6.1 0.00 0.00 0.00 1020.7
20260830145630 0 255 2.6 4.3 0.00 0.00 0.00 1020.8
20260830145125 0 186 1.7 2.6 0.00 0.00 0.00 1020.8
20260830144620 0 215 2.6 4.3 0.00 0.00 0.00 1021.2
20260830144116 0 331 2.6 2.6 0.00 0.00 0.00 1021.0
20260830143612 0 225 2.6 4.3 0.00 0.00 0.00 1021.0
20260830143110 0 164 0.9 1.7 0.00 0.00 0.00 1021.2
20260830142606 0 333 0.9 0.9 0.00 0.00 0.00 1021.2
20260830142100 0 180 2.6 2.6 0.00 0.00 0.00 1021.2
20260830141556 0 203 0.9 1.7 0.00 0.00 0.00 1021.0
20260830141051 0 197 0.0 0.9 0.00 0.00 0.00 1021.0
20260830140551 0 210 2.6 4.3 0.00 0.00 0.00 1020.7
20260830140047 0 252 0.9 0.9 0.00 0.00 0.00 1020.7
20260830135541 0 180 2.6 2.6 0.00 0.00 0.00 1020.7
20260830135036 0 150 1.7 1.7 0.00 0.00 0.00 1020.9
20260830134533 0 309 0.9 1.7 0.00 0.00 0.00 1020.7
20260830134028 0 201 3.5 4.3 0.00 0.00 0.00 1020.7
20260830133523 83 88 3.5 4.3 0.00 0.00 0.00 86 1020.6
20260830133018 82 173 2.6 2.6 0.00 0.00 0.00 87 1020.5
20260830132514 82 189 1.7 2.6 0.00 0.00 0.00 87 1020.9
20260830132014 82 263 0.0 0.0 0.00 0.00 0.00 88 1020.5
20260830131513 82 9 0.9 0.9 0.00 0.00 0.00 88 1020.6
20260830131008 82 317 0.0 0.0 0.00 0.00 0.00 88 1020.6
20260830130503 82 254 0.9 0.9 0.00 0.00 0.00 89 1020.6
20260830130002 81 1 0.9 0.9 0.00 0.00 0.00 89 1020.4
20260830125458 81 253 0.0 0.0 0.00 0.00 0.00 89 1021.0
20260830124956 81 263 0.9 1.7 0.00 0.00 0.00 89 1020.5
20260830124451 81 308 0.0 0.0 0.00 0.00 0.00 89 1020.5
20260830123947 81 2 0.9 0.9 0.00 0.00 0.00 89 1020.3
20260830123444 81 311 0.9 0.9 0.00 0.00 0.00 89 1020.5
20260830122942 81 287 0.0 0.9 0.00 0.00 0.00 89 1020.4
20260830122441 81 299 0.0 0.0 0.00 0.00 0.00 89 1020.4
20260830121936 80 196 0.9 0.9 0.00 0.00 0.00 89 1020.3
20260830121431 0 316 0.0 0.9 0.00 0.00 0.00 1020.4
20260830120926 0 216 0.9 0.9 0.00 0.00 0.00 1020.3
20260830120422 0 194 1.7 1.7 0.00 0.00 0.00 1020.4
20260830115918 0 228 0.0 0.9 0.00 0.00 0.00 1020.0
20260830115414 0 321 0.0 0.9 0.00 0.00 0.00 1020.1
20260830114909 0 169 0.9 1.7 0.00 0.00 0.00 1020.1
20260830114406 0 206 2.6 4.3 0.00 0.00 0.00 1019.8
20260830113905 0 276 0.9 1.7 0.00 0.00 0.00 1020.1
20260830113401 0 232 0.9 1.7 0.00 0.00 0.00 1020.0
20260830112856 0 234 0.9 0.9 0.00 0.00 0.00 1020.1
20260830112352 0 193 2.6 2.6 0.00 0.00 0.00 1020.1
20260830111848 0 232 0.0 0.0 0.00 0.00 0.00 1019.9
20260830111343 0 242 0.0 0.0 0.00 0.00 0.00 1019.8
20260830110843 0 228 0.0 0.0 0.00 0.00 0.00 1019.6
20260830110340 0 256 0.0 0.0 0.00 0.00 0.00 1019.7
20260830105838 0 295 0.0 0.0 0.00 0.00 0.00 1019.5
20260830105335 0 300 0.0 0.0 0.00 0.00 0.00 1019.8
20260830104831 0 246 0.0 0.0 0.00 0.00 0.00 1019.5
20260830104328 0 143 0.0 0.0 0.00 0.00 0.00 1019.5
20260830103826 0 257 0.0 0.0 0.00 0.00 0.00 1019.6
20260830103323 0 262 0.0 0.0 0.00 0.00 0.00 1019.6
20260830102821 0 251 0.0 0.0 0.00 0.00 0.00 1019.7
20260830102317 0 252 0.0 0.0 0.00 0.00 0.00 1019.5
20260830101812 0 277 0.0 0.0 0.00 0.00 0.00 1019.4
20260830101308 0 247 0.0 0.0 0.00 0.00 0.00 1019.6
20260830100806 0 287 0.9 0.9 0.00 0.00 0.00 1019.5
20260830100301 0 281 0.0 0.0 0.00 0.00 0.00 1019.6
20260830095800 0 288 0.0 0.0 0.00 0.00 0.00 1019.3
20260830095256 0 299 0.0 0.0 0.00 0.00 0.00 1019.5
20260830094752 0 255 0.0 0.0 0.00 0.00 0.00 1019.4
20260830094248 0 273 0.0 0.0 0.00 0.00 0.00 1019.4
20260830093743 0 240 0.0 0.0 0.00 0.00 0.00 1019.8
20260830093239 0 269 0.0 0.9 0.00 0.00 0.00 1019.7
20260830092738 0 226 0.9 0.9 0.00 0.00 0.00 1019.4
20260830092235 0 1 0.0 0.9 0.00 0.00 0.00 1019.5
20260830091731 0 222 0.0 0.9 0.00 0.00 0.00 1019.8
20260830091231 0 103 0.9 0.9 0.00 0.00 0.00 1019.8
20260830090730 0 322 0.9 0.9 0.00 0.00 0.00 1019.7
20260830090226 0 188 1.7 1.7 0.00 0.00 0.00 1019.8
20260830085725 0 239 2.6 2.6 0.00 0.00 0.00 1019.8
20260830085221 0 288 0.9 1.7 0.00 0.00 0.00 1019.9
20260830084716 0 211 0.9 0.9 0.00 0.00 0.00 1019.6
20260830084212 0 288 0.0 0.9 0.00 0.00 0.00 1019.8
20260830083706 0 271 0.0 0.0 0.00 0.00 0.00 1019.6
20260830083202 0 324 0.9 1.7 0.00 0.00 0.00 1019.8
20260830082701 0 338 0.0 0.0 0.00 0.00 0.00 1020.0
20260830082157 0 357 0.0 0.9 0.00 0.00 0.00 1019.9
20260830081653 0 305 0.0 0.0 0.00 0.00 0.00 1020.0
20260830081152 0 16 0.0 0.0 0.00 0.00 0.00 1020.1
20260830080647 0 23 0.0 0.9 0.00 0.00 0.00 1020.1
20260830080143 0 3 0.0 0.0 0.00 0.00 0.00 1020.3
20260830075642 0 332 0.9 0.9 0.00 0.00 0.00 1020.4
20260830075137 0 292 0.0 0.0 0.00 0.00 0.00 1020.4
20260830074633 0 354 1.7 2.6 0.00 0.00 0.00 1020.5
20260830074129 0 32 0.0 0.0 0.00 0.00 0.00 1020.6
20260830073625 0 285 0.9 0.9 0.00 0.00 0.00 1020.4
20260830073120 0 22 0.0 0.0 0.00 0.00 0.00 1020.7
20260830072615 0 14 0.9 1.7 0.00 0.00 0.00 1020.8
20260830072115 0 323 0.0 0.0 0.00 0.00 0.00 1020.7
20260830071610 0 306 0.0 0.0 0.00 0.00 0.00 1021.0
20260830071108 0 333 0.0 0.0 0.00 0.00 0.00 1021.0
20260830070603 0 343 0.9 0.9 0.00 0.00 0.00 1020.9
20260830070058 0 12 0.0 0.9 0.00 0.00 0.00 1020.9
20260830065557 81 4 1.7 1.7 0.00 0.00 0.00 88 1020.7
20260830065055 81 104 0.0 0.0 0.00 0.00 0.00 88 1020.9
20260830064550 81 71 0.0 0.9 0.00 0.00 0.00 88 1021.0
20260830064045 81 353 0.0 0.9 0.00 0.00 0.00 88 1020.9
20260830063540 80 5 0.0 0.9 0.00 0.00 0.00 89 1021.0
20260830063039 80 282 0.0 0.0 0.00 0.00 0.00 89 1021.0
20260830062538 80 273 0.0 0.9 0.00 0.00 0.00 89 1021.2
20260830062033 80 327 0.0 0.0 0.00 0.00 0.00 89 1021.2
20260830061528 80 319 0.0 0.0 0.00 0.00 0.00 90 1021.3
20260830061024 80 47 0.0 0.9 0.00 0.00 0.00 90 1021.6
20260830060520 80 64 0.9 0.9 0.00 0.00 0.00 90 1021.3
20260830060017 80 90 0.9 0.9 0.00 0.00 0.00 90 1021.5
20260830055512 80 332 0.0 0.9 0.00 1.04 1.04 90 1021.6
20260830055008 80 333 0.0 0.0 0.00 1.04 1.04 90 1021.5
20260830054503 80 6 0.0 0.0 0.00 1.04 1.04 91 1021.5
20260830053959 80 333 0.0 0.0 0.00 1.04 1.04 91 1021.6
20260830053454 81 310 0.0 0.0 0.00 1.04 1.04 91 1021.8
20260830052952 81 310 0.0 0.0 0.00 1.04 1.04 90 1021.8
20260830052448 81 296 0.0 0.0 0.00 1.04 1.04 90 1021.6
20260830051943 81 292 0.0 0.0 0.00 1.04 1.04 90 1021.6
20260830051438 81 327 0.0 0.0 0.00 1.04 1.04 90 1021.9
20260830050938 81 327 0.0 0.0 0.00 1.04 1.04 90 1021.7
20260830050433 81 29 0.0 0.0 0.00 1.04 1.04 90 1021.6
20260830045931 81 329 0.0 0.0 0.00 1.04 1.04 90 1021.8
20260830045426 81 14 0.9 0.9 0.00 1.04 1.04 90 1021.8
20260830044925 81 87 0.0 0.9 0.00 1.04 1.04 90 1021.8
20260830044421 81 29 0.9 0.9 0.00 1.04 1.04 90 1021.6
20260830043916 81 313 0.0 0.0 0.00 1.04 1.04 90 1021.8
20260830043411 81 27 0.0 0.0 0.00 1.04 1.04 90 1021.8
20260830042909 81 290 0.0 0.0 0.00 1.04 1.04 90 1021.9
20260830042403 81 351 0.0 0.0 0.00 1.04 1.04 90 1021.9
20260830041902 81 267 0.9 0.9 0.00 1.04 1.04 90 1022.0
20260830041401 81 30 0.9 4.3 0.00 1.04 1.04 90 1022.0
20260830040857 81 66 0.9 1.7 0.00 1.04 1.04 90 1022.0
20260830040353 81 340 0.0 0.0 0.00 1.04 1.04 90 1022.3
20260830035852 81 45 0.9 1.7 0.00 1.04 1.04 91 1021.9
20260830035351 80 4 0.0 0.9 0.00 1.04 1.04 91 1021.9
20260830034847 81 310 0.0 0.0 0.00 1.04 1.04 91 1021.9
20260830034342 80 309 0.0 0.0 0.00 1.04 1.04 91 1021.9
20260830033838 81 68 0.0 0.0 0.00 1.04 1.04 91 1021.8
20260830033337 81 316 0.0 0.0 0.00 1.04 1.04 91 1022.0
20260830032832 81 62 0.0 0.0 0.00 1.04 1.04 91 1021.5
20260830032326 81 309 0.0 0.0 0.00 1.04 1.04 91 1021.7
20260830031822 81 305 0.0 0.0 0.00 1.04 1.04 91 1021.5
20260830031318 81 72 0.0 0.0 0.00 1.04 1.04 92 1021.4
20260830030813 81 269 0.0 0.0 0.00 1.04 1.04 91 1021.6
20260830030309 81 2 0.0 0.0 0.00 1.04 1.04 91 1021.4